Location: Anjeux
(47.8815°N, 6.2076°E)
Time: 11:09:36
(UTC+00:00)

AO-27 - Pass Details

Date: 14 December 2021
Orbit: 784 x 798 km, 98.9° (Epoch: 24 January)

Event Time Altitude Azimuth Distance (km) Brightness Sun altitude
Rises 06:36:28 0° 20° (NNE) 3,310 10.8 -6.7°
Reaches altitude 10° 06:38:56 10° 27° (NNE) 2,374 10.2 -6.3°
Maximum altitude 06:43:54 43° 99° (E) 1,107 9.1 -5.6°
Drops below altitude 10° 06:48:49 10° 170° (S) 2,348 10.7 -4.8°
Sets 06:51:15 0° 177° (S) 3,270 11.4 -4.5°
